Вернуться в каталог

SL-16 DEB

АктивенLEO
NORAD 22607·DEBRIS·🇷🇺 Russia

Запущен Mar 26, 1993 с Baikonur Cosmodrome

Loading…

Ближайшие Пролёты (ближайшие 24 часа)

TLE

СвежийSource: Space-Track

Эпоха: Sep 14, 2026, 14:01 UTC

1 22607U 93016R   26257.58465573 -.00000004  00000-0  36895-4 0  9991
2 22607  70.9939 329.7352 0174646 330.6237  95.3804 13.75948613680492

Отслеживайте SL-16 DEB в реальном времени с AllMySat

Download on the App Store